Weather History for Prague, Czech Republic

Change the Weather History Date:

Thursday, July 24, 2014

  Actual Average Record
Temperature  
Mean Temperature 62 °F -  
Max Temperature 70 °F 73 °F 86 °F (2006)
Min Temperature 54 °F 53 °F 46 °F (2005)
Degree Days  
Heating Degree Days 3    
Growing Degree Days 12 (Base 50)    
Moisture  
Dew Point 55 °F    
Average Humidity 72    
Maximum Humidity 88    
Minimum Humidity 52    
Precipitation  
Precipitation 0.00 in 0.09 in - ()
Sea Level Pressure  
Sea Level Pressure 29.94 in    
Wind  
Wind Speed 6 mph ()    
Max Wind Speed 16 mph    
Max Gust Speed -    
Visibility 6.2 miles    
Events      
Averages and records for this station are not official NWS values.
T = Trace of Precipitation, MM = Missing Value Source: Averaged Metar Reports

Daily Weather History Graph

Daily Weather History Graph

Search for Another Location

Airport:

Trip Planner

Search our weather history database for the weather conditions in past years. The results will help you decide how hot, cold, wet, or windy it might be!

Date:

Astronomy

Jul. 24, 2014 Rise Set
Actual Time 5:20 AM CEST 8:57 PM CEST
Civil Twilight 4:40 AM CEST 9:37 PM CEST
Nautical Twilight 3:45 AM CEST 10:32 PM CEST
Astronomical Twilight 2:25 AM CEST 11:50 PM CEST
Moon 3:16 AM CEST (7/24) 6:56 PM CEST (7/24)
Length of Visible Light 16h 57m
Length of Day
15h 36m
Waning Crescent, 6% of the Moon is Illuminated
Jul 24
Waning Crescent
Jul 27
New
Aug 4
First Quarter
Aug 10
Full
Aug 17
Last Quarter

Hourly Weather History & Observations

Time (CEST) Temp. Dew Point Humidity Pressure Visibility Wind Dir Wind Speed Gust Speed Precip Events Conditions
12:00 AM 60 °F 53 °F 72% 29.98 in 31 mi WSW 2.2 mph - -   Mostly Cloudy
12:00 AM 59.0 °F 53.6 °F 82% 29.98 in - Variable 1.2 mph - N/A   Clear
12:30 AM 60.8 °F 53.6 °F 77% 30.01 in - North 5.8 mph - N/A   Clear
1:00 AM 61 °F 53 °F 67% 29.98 in 31 mi North 4.5 mph - -   Scattered Clouds
1:00 AM 60.8 °F 51.8 °F 72% 29.98 in - North 2.3 mph - N/A   Clear
1:30 AM 59.0 °F 51.8 °F 77% 29.98 in - NNW 3.5 mph - N/A   Clear
2:00 AM 59 °F 52 °F 72% 29.97 in 25 mi North 4.5 mph - -   Partly Cloudy
2:00 AM 59.0 °F 51.8 °F 77% 29.98 in - North 3.5 mph - N/A   Clear
2:30 AM 59.0 °F 51.8 °F 77% 29.98 in - NNW 5.8 mph - N/A   Clear
3:00 AM 58 °F 52 °F 74% 29.96 in 25 mi NW 4.5 mph - -   Scattered Clouds
3:00 AM 59.0 °F 51.8 °F 77% 29.98 in - NNW 4.6 mph - N/A   Clear
3:30 AM 57.2 °F 51.8 °F 82% 29.95 in - NW 4.6 mph - N/A   Clear
4:00 AM 56 °F 51 °F 78% 29.96 in 22 mi WNW 4.5 mph - -   Scattered Clouds
4:00 AM 55.4 °F 50.0 °F 82% 29.95 in - WSW 3.5 mph - N/A   Clear
4:30 AM 57.2 °F 51.8 °F 82% 29.95 in - West 3.5 mph - N/A   Clear
5:00 AM 55 °F 51 °F 81% 29.97 in 22 mi WNW 4.5 mph - -   Scattered Clouds
5:00 AM 55.4 °F 50.0 °F 82% 29.95 in - West 3.5 mph - N/A   Clear
5:30 AM 55.4 °F 50.0 °F 82% 29.95 in - NW 3.5 mph - N/A   Clear
6:00 AM 56 °F 51 °F 78% 29.96 in 22 mi NW 2.2 mph - -   Scattered Clouds
6:00 AM 55.4 °F 51.8 °F 88% 29.95 in - NNW 3.5 mph - N/A   Clear
6:30 AM 57.2 °F 51.8 °F 82% 29.95 in - NW 6.9 mph - N/A   Clear
7:00 AM 59 °F 54 °F 77% 29.96 in 25 mi NNW 6.7 mph - -   Scattered Clouds
7:00 AM 59.0 °F 53.6 °F 82% 29.95 in - NNW 6.9 mph - N/A   Clear
7:30 AM 60.8 °F 53.6 °F 77% 29.95 in - NNW 6.9 mph - N/A   Clear
8:00 AM 62 °F 55 °F 71% 29.95 in 22 mi North 8.9 mph - -   Scattered Clouds
8:00 AM 60.8 °F 55.4 °F 82% 29.95 in - North 5.8 mph - N/A   Clear
8:30 AM 62.6 °F 55.4 °F 77% 29.95 in - North 6.9 mph - N/A   Clear
9:00 AM 64 °F 55 °F 65% 29.94 in 22 mi NNE 4.5 mph - -   Scattered Clouds
9:00 AM 64.4 °F 55.4 °F 73% 29.95 in 6.2 mi NNE 5.8 mph - N/A   Partly Cloudy
9:30 AM 66.2 °F 55.4 °F 68% 29.95 in 6.2 mi NNW 5.8 mph - N/A   Partly Cloudy
10:00 AM 67 °F 56 °F 59% 29.93 in 22 mi NE 6.7 mph - -   Scattered Clouds
10:00 AM 66.2 °F 55.4 °F 68% 29.95 in 6.2 mi NNW 6.9 mph - N/A   Partly Cloudy
10:30 AM 68.0 °F 57.2 °F 68% 29.95 in 6.2 mi North 8.1 mph - N/A   Scattered Clouds
11:00 AM 67 °F 56 °F 58% 29.92 in 22 mi NNE 8.9 mph - -   Mostly Cloudy
11:00 AM 68.0 °F 55.4 °F 64% 29.95 in 6.2 mi North 8.1 mph - N/A   Mostly Cloudy
11:30 AM 68.0 °F 57.2 °F 68% 29.95 in 6.2 mi NNE 10.4 mph - N/A   Partly Cloudy
12:00 PM 66 °F 56 °F 63% 29.93 in 22 mi NNE 13.4 mph - -   Scattered Clouds
12:00 PM 66.2 °F 57.2 °F 73% 29.95 in 6.2 mi North 12.7 mph - N/A   Partly Cloudy
12:30 PM 68.0 °F 57.2 °F 68% 29.95 in 6.2 mi North 11.5 mph - N/A   Partly Cloudy
1:00 PM 67 °F 56 °F 60% 29.92 in 22 mi North 13.4 mph - -   Scattered Clouds
1:00 PM 68.0 °F 57.2 °F 68% 29.95 in 6.2 mi North 11.5 mph - N/A   Partly Cloudy
1:30 PM 68.0 °F 57.2 °F 68% 29.95 in 6.2 mi North 12.7 mph - N/A   Scattered Clouds
2:00 PM 69 °F 56 °F 55% 29.91 in 31 mi North 11.2 mph - -   Mostly Cloudy
2:00 PM 68.0 °F 55.4 °F 64% 29.95 in 6.2 mi North 12.7 mph - N/A   Scattered Clouds
2:30 PM 68.0 °F 55.4 °F 64% 29.92 in 6.2 mi North 13.8 mph - N/A   Scattered Clouds
3:00 PM 68 °F 55 °F 54% 29.91 in 31 mi North 15.7 mph - -   Mostly Cloudy
3:00 PM 68.0 °F 55.4 °F 64% 29.92 in 6.2 mi North 12.7 mph - N/A   Partly Cloudy
3:30 PM 68.0 °F 55.4 °F 64% 29.92 in 6.2 mi North 10.4 mph - N/A   Partly Cloudy
4:00 PM 68 °F 56 °F 55% 29.90 in 31 mi North 11.2 mph - -   Scattered Clouds
4:00 PM 68.0 °F 55.4 °F 64% 29.92 in 6.2 mi NNE 13.8 mph - N/A   Partly Cloudy
4:30 PM 68.0 °F 55.4 °F 64% 29.92 in 6.2 mi North 12.7 mph - N/A   Scattered Clouds
5:00 PM 69 °F 55 °F 52% 29.89 in 31 mi North 13.4 mph - -   Partly Cloudy
5:00 PM 68.0 °F 55.4 °F 64% 29.92 in 6.2 mi NNW 13.8 mph - N/A   Scattered Clouds
5:30 PM 68.0 °F 55.4 °F 64% 29.92 in 6.2 mi North 10.4 mph - N/A   Partly Cloudy
6:00 PM 70 °F 58 °F 56% 29.88 in 31 mi North 13.4 mph - -   Scattered Clouds
6:00 PM 69.8 °F 57.2 °F 64% 29.92 in 6.2 mi North 15.0 mph - N/A   Scattered Clouds
6:30 PM 66.2 °F 55.4 °F 68% 29.92 in 6.2 mi North 13.8 mph - N/A   Partly Cloudy
7:00 PM 67 °F 57 °F 62% 29.88 in 31 mi NNW 15.7 mph - -   Scattered Clouds
7:00 PM 68.0 °F 57.2 °F 68% 29.92 in 6.2 mi North 13.8 mph - N/A   Partly Cloudy
7:30 PM 66.2 °F 57.2 °F 73% 29.92 in 6.2 mi North 12.7 mph - N/A   Partly Cloudy
8:00 PM 64 °F 57 °F 71% 29.90 in 31 mi North 11.2 mph - -   Scattered Clouds
8:00 PM 64.4 °F 57.2 °F 77% 29.92 in 6.2 mi North 11.5 mph - N/A   Partly Cloudy
8:30 PM 64.4 °F 57.2 °F 77% 29.92 in 6.2 mi North 6.9 mph - N/A   Partly Cloudy
9:00 PM 62 °F 57 °F 77% 29.90 in 31 mi NNW 6.7 mph - -   Scattered Clouds
9:00 PM 62.6 °F 57.2 °F 82% 29.92 in 6.2 mi NNW 5.8 mph - N/A   Partly Cloudy
9:30 PM 60.8 °F 57.2 °F 88% 29.92 in 6.2 mi NNW 6.9 mph - N/A   Partly Cloudy
10:00 PM 60 °F 57 °F 86% 29.91 in 25 mi NNW 6.7 mph - -   Partly Cloudy
10:00 PM 60.8 °F 57.2 °F 88% 29.92 in 6.2 mi North 5.8 mph - N/A   Scattered Clouds
10:30 PM 60.8 °F 57.2 °F 88% 29.92 in 6.2 mi NW 4.6 mph - N/A   Mostly Cloudy
11:00 PM 61 °F 58 °F 86% 29.92 in 25 mi WNW 2.2 mph - -   Mostly Cloudy
11:00 PM 60.8 °F 57.2 °F 88% 29.92 in 6.2 mi WNW 4.6 mph - N/A   Mostly Cloudy
11:30 PM 60.8 °F 57.2 °F 88% 29.92 in 6.2 mi West 3.5 mph - N/A   Scattered Clouds